1307839828385,0.000144198
1307839888385,0.000144537
1307839948385,0.000143364
1307840008385,0.000143268
1307840068385,0.000143259
1307843428396,0.000143898
1307843488396,0.000143324
1307843548396,0.000144080
1307843608396,0.000143371
1307843668396,0.000143617
1307847028406,0.000143072
1307847088406,0.000142733
1307847148406,0.000142619
1307847208406,0.000142258
1307847268406,0.000141769
1307850628416,0.000142724
1307850688416,0.000142732
1307850748416,0.000144519
1307850808416,0.000141756
1307850868416,0.000142729
1307854228426,0.000141659
1307854288426,0.000142829
1307854348426,0.000142947
1307854408426,0.000142417
1307854468426,0.000141931
1307857828435,0.000142655
1307857888435,0.000141763
1307857948435,0.000141290
1307858008435,0.000140700
1307858068435,0.000140385
1307861428445,0.000139488
1307861488445,0.000140987
1307861548445,0.000139947
1307861608445,0.000141423
1307861668445,0.000139598
1307865028454,0.000140653
1307865088454,0.000141802
1307865148454,0.000141310
1307865208454,0.000142236
1307865268454,0.000142695
1307865328454,0.000140647
1307865388454,0.000141584
1307865448454,0.000142057
1307865508454,0.000142730
1307865568454,0.000141700
1307865628464,0.000140351
1307865688464,0.000141512
1307865748464,0.000140985
1307865808464,0.000141673
1307865868464,0.000141019
1307865928464,0.000141624
1307865988464,0.000141561
1307866048464,0.000141858
1307866108464,0.000142428
1307866168464,0.000141317
1307866228464,0.000142650
1307866288464,0.000141843
1307866348464,0.000140825
1307866408464,0.000141556
1307866468464,0.000141874
1307866528464,0.000142696
1307866588464,0.000142541
1307866648464,0.000141920
1307866708464,0.000141634
1307866768464,0.000142253
1307866828464,0.000141319
1307866888464,0.000141331
1307866948464,0.000140992
1307867008464,0.000141202
1307867068464,0.000140250
1307867128464,0.000142526
1307867188464,0.000141186
1307867248464,0.000141013
1307867308464,0.000140827
1307867368464,0.000139967
1307867428464,0.000140902
1307867488464,0.000141271
1307867548464,0.000141263
1307867608464,0.000141370
1307867668464,0.000141474
1307867728464,0.000141311
1307867788464,0.000141669
1307867848464,0.000140288
1307867908464,0.000140582
1307867968464,0.000141457
1307868028464,0.000140643
1307868088464,0.000140823
1307868148464,0.000142029
1307868208464,0.000140574
1307868268464,0.000142271
1307868328464,0.000141588
1307868388464,0.000141658
1307868448464,0.000141681
1307868508464,0.000140644
1307868568464,0.000142124
1307868628464,0.000142141
1307868688464,0.000142860
1307868748464,0.000142988
1307868808464,0.000141458
1307868868464,0.000141616
1307868928464,0.000141629
1307868988464,0.000140437
1307869048464,0.000142887
1307869108464,0.000141251
1307869168464,0.000141516
1307869228473,0.000141139
1307869288473,0.000140792
1307869348473,0.000141331
1307869408473,0.000140182
1307869468473,0.000141148
1307869528473,0.000140542
1307869588473,0.000141979
1307869648473,0.000140020
1307869708473,0.000141229
1307869768473,0.000140870
1307869828473,0.000139691
1307869888473,0.000140759
1307869948473,0.000140871
1307870008473,0.000143125
1307870068473,0.000141853
1307870128473,0.000141860
1307870188473,0.000140900
1307870248473,0.000140297
1307870308473,0.000140481
1307870368473,0.000140978
1307870428473,0.000141050
1307870488473,0.000140631
1307870548473,0.000142098
1307870608473,0.000140547
1307870668473,0.000141334
1307870728473,0.000141375
1307870788473,0.000141791
1307870848473,0.000142251
1307870908473,0.000139668
1307870968473,0.000140562
1307871028473,0.000141238
1307871088473,0.000141289
1307871148473,0.000141911
1307871208473,0.000140855
1307871268473,0.000140251
1307871328473,0.000141026
1307871388473,0.000140891
1307871448473,0.000140848
1307871508473,0.000139671
1307871568473,0.000141929
1307871628473,0.000142079
1307871688473,0.000139566
1307871748473,0.000138271
1307871808473,0.000139812
1307871868473,0.000141190
1307871928473,0.000140036
1307871988473,0.000141439
1307872048473,0.000139719
1307872108473,0.000139514
1307872168473,0.000139809
1307872228473,0.000140772
1307872288473,0.000140930
1307872348473,0.000140727
1307872408473,0.000141696
1307872468473,0.000140714
1307872528473,0.000139471
1307872588473,0.000139857
1307872648473,0.000141367
1307872708473,0.000141806
1307872768473,0.000140735
1307872828483,0.000140910
1307872888483,0.000139830
1307872948483,0.000140504
1307873008483,0.000141438
1307873068483,0.000139352
1307873128483,0.000140376
1307873188483,0.000139887
1307873248483,0.000139208
1307873308483,0.000140523
1307873368483,0.000140988
1307873428483,0.000140396
1307873488483,0.000139143
1307873548483,0.000139662
1307873608483,0.000140485
1307873668483,0.000139138
1307873728483,0.000140833
1307873788483,0.000140349
1307873848483,0.000140203
1307873908483,0.000140276
1307873968483,0.000140497
1307874028483,0.000139890
1307874088483,0.000139078
1307874148483,0.000141214
1307874208483,0.000141875
1307874268483,0.000140283
1307874328483,0.000140243
1307874388483,0.000140033
1307874448483,0.000140739
1307874508483,0.000139466
1307874568483,0.000141456
1307874628483,0.000140204
1307874688483,0.000140381
1307874748483,0.000140154
1307874808483,0.000140586
1307874868483,0.000140762
1307874928483,0.000140778
1307874988483,0.000141134
1307875048483,0.000141305
1307875108483,0.000140818
1307875168483,0.000140675
1307875228483,0.000142540
1307875288483,0.000140388
1307875348483,0.000140526
1307875408483,0.000140662
1307875468483,0.000140967
1307875528483,0.000140954
1307875588483,0.000141183
1307875648483,0.000140158
1307875708483,0.000140948
1307875768483,0.000141455
1307875828483,0.000140520
1307875888483,0.000141280
1307875948483,0.000140403
1307876008483,0.000142710
1307876068483,0.000140594
1307879428492,0.000138646
1307879488492,0.000138110
1307879548492,0.000139891
1307879608492,0.000140333
1307879668492,0.000139771
1307883028501,0.000140091
1307883088501,0.000141062
1307883148501,0.000139596
1307883208501,0.000139253
1307883268501,0.000139774
1307886628511,0.000141328
1307886688511,0.000138507
1307886748511,0.000140707
1307886808511,0.000139320
1307886868511,0.000139259
1307890228520,0.000140126
1307890288520,0.000141674
1307890348520,0.000139979
1307890408520,0.000141374
1307890468520,0.000139403
1307893828530,0.000140424
1307893888530,0.000140340
1307893948530,0.000139800
1307894008530,0.000139909
1307894068530,0.000140222
1307897428540,0.000142309
1307897488540,0.000141699
1307897548540,0.000139801
1307897608540,0.000140402
1307897668540,0.000140374
1307901028550,0.000141840
1307901088550,0.000142716
1307901148550,0.000141710
1307901208550,0.000142697
1307901268550,0.000142198
1307904628561,0.000143541
1307904688560,0.000143977
1307904748560,0.000141292
1307904808560,0.000142900
1307904868560,0.000143916
1307908228571,0.000143910
1307908288571,0.000143479
1307908348571,0.000142660
1307908408571,0.000143119
1307908468571,0.000144003
1307911828582,0.000143610
1307911888582,0.000144191
1307911948582,0.000145221
1307912008582,0.000143291
1307912068582,0.000143697
1307915428593,0.000142733
1307915488593,0.000144421
1307915548593,0.000143980
1307915608593,0.000143265
1307915668593,0.000143282
1307919028604,0.000142091
1307919088604,0.000144084
1307919148604,0.000143045
1307919208604,0.000142151
1307919268604,0.000142846
1307922628615,0.000142801
1307922688615,0.000142238
1307922748615,0.000142361
1307922808615,0.000142395
1307922868615,0.000142086
